Dewpoint
4 -2 1 4 5 4 3 3 5 6 9 11 10 10 11 11 10 8 8 9 11 10 10 11 12 10 10 9 10 9 9 11 12 11 11 11 11 11 11 12 10 8 7
2 -4 -1 4 6 3 3 4 5 9 12 12 11 11 11 11 11 9 9 10 10 12 10 11 12 10 8 7 7 7 9 10 11 10 10 11 11 11 11 11 7 12 12
-5 -9 -3 4 5 3 3 4 7 12 13 12 12 12 11 11 11 10 9 10 9 11 11 11 12 11 7 8 8 10 10 9 9 10 10 11 11 11 11 11 11 11 11
-7 -9 -5 4 4 3 4 5 10 13 11 12 12 12 12 12 11 10 9 10 10 11 11 11 12 11 10 9 10 11 10 9 9 10 10 11 11 11 12 11 11 11 11
-4 -4 -3 4 3 3 4 6 10 12 11 12 12 12 12 11 11 9 10 10 10 11 11 11 12 11 10 9 10 11 10 9 9 11 11 11 11 12 11 11 12 12 11
1 2 1 4 4 4 6 8 11 12 12 12 12 12 12 11 11 11 10 11 11 11 11 11 12 11 9 10 10 11 11 12 12 12 12 11 10 12 10 10 11 11 12
5 5 5 4 4 5 6 7 12 12 11 12 12 12 12 11 11 11 11 11 10 9 10 10 12 12 10 10 10 11 11 12 13 13 13 12 12 12 12 12 13 13 11
10 5 5 5 4 4 5 6 8 10 10 11 12 12 11 11 11 11 11 11 10 10 9 9 11 12 11 11 11 11 12 13 13 12 12 13 14 14 13 13 14 13 12
11 11 5 4 4 4 4 4 4 5 10 11 11 11 11 10 10 11 11 11 11 10 10 10 12 13 11 10 12 11 11 12 12 11 11 12 13 13 13 13 12 10 12
12 12 7 6 5 4 4 3 1 4 10 10 11 11 10 9 10 10 11 11 11 10 9 9 10 11 11 11 11 11 10 11 11 11 11 12 12 12 12 12 13 12 12
11 11 11 9 7 6 4 4 0 4 8 10 11 11 11 10 9 10 10 11 12 12 10 11 11 12 11 11 11 11 11 11 11 12 12 12 12 12 12 12 12 12 13
10 11 12 12 12 12 11 9 -0 6 9 9 10 11 11 10 9 10 10 10 11 11 12 11 11 10 10 11 11 11 11 11 11 12 13 13 12 12 12 12 12 12 12
10 11 12 12 12 12 11 10 7 9 11 12 11 11 11 11 10 10 10 10 11 12 12 12 10 10 11 12 11 11 11 11 12 12 12 12 12 12 12 12 12 12 12
10 12 11 12 12 12 11 9 9 11 11 12 12 10 10 11 11 10 9 11 11 11 12 11 10 10 11 9 10 11 11 12 12 12 12 12 12 12 12 12 12 12 11
9 10 12 12 12 12 11 12 11 11 11 11 9 9 10 10 10 10 10 12 12 12 12 11 11 10 10 9 10 11 12 12 11 11 11 11 11 11 11 11 10 9 7
11 11 12 11 11 11 11 11 11 11 10 9 10 10 10 10 9 10 10 11 11 12 11 10 11 11 11 11 11 11 11 11 11 10 10 9 10 10 10 7 5 1 -1
10 11 11 11 11 11 11 11 11 11 9 9 10 10 10 10 9 9 10 11 11 11 10 10 11 11 10 10 10 10 9 9 9 8 7 6 4 4 4 4 2 1 2
10 11 11 10 11 10 10 10 10 9 8 9 10 10 9 10 10 10 11 11 11 11 11 10 10 9 9 9 8 8 8 8 8 7 5 -0 2 3 6 5 5 5 5
8 10 10 10 11 11 10 10 10 9 9 10 9 9 9 10 10 10 10 10 10 11 11 10 9 9 8 8 8 7 7 7 6 5 2 -1 -2 -2 -1 3 5 4 5
6 8 9 9 10 10 10 9 9 9 9 9 9 9 9 9 10 10 10 10 10 10 10 9 7 8 7 7 7 7 6 5 4 1 -3 -4 -3 -2 -3 -6 -5 2 3
2 6 8 9 9 10 10 9 9 9 9 9 8 9 9 8 9 10 10 10 10 10 10 9 8 7 7 7 6 6 5 5 3 0 -1 -3 -8 -8 -10 -8 -9 -13 -14
-1 2 5 7 8 9 8 9 9 9 8 8 8 7 8 8 8 9 10 10 10 10 9 8 8 7 7 6 5 4 2 2 2 2 1 -2 -6 -13 -16 -16 -14 -15 -18
-2 -0 2 4 7 8 8 8 9 8 8 7 7 6 8 8 8 8 9 9 9 9 8 8 7 7 6 6 4 4 3 3 1 1 2 -1 -6 -14 -18 -19 -19 -19 -18
-5 -2 -0 1 4 7 8 7 9 8 7 7 6 5 7 7 8 8 8 9 8 8 7 7 8 7 5 5 4 2 -1 -2 2 -1 -2 -3 -8 -15 -19 -20 -20 -20 -20
-8 -5 -2 -0 2 4 7 7 8 9 8 8 5 4 5 6 7 7 7 8 8 8 7 7 7 5 3 -0 -1 -1 -3 -6 -2 -2 -2 -6 -11 -15 -18 -19 -19 -19 -19
-9 -8 -4 -1 0 2 5 7 7 8 8 8 5 3 2 5 4 1 2 6 6 5 4 4 4 5 2 -0 -4 -3 -7 -10 -6 -8 -5 -7 -12 -15 -16 -17 -18 -18 -18
Wind_Speed
12 7 10 14 15 14 14 12 12 11 9 8 8 10 10 9 7 7 7 7 8 9 10 11 11 13 13 13 14 14 13 15 14 14 17 16 19 21 23 23 22 22 23
10 7 11 14 14 16 16 14 14 11 9 8 7 8 10 10 9 9 8 8 8 9 11 12 13 13 13 13 13 13 14 15 16 17 19 20 23 25 24 22 24 23 24
8 7 11 14 15 16 15 15 14 11 11 9 7 8 9 10 10 10 9 9 9 10 13 13 14 14 13 12 13 14 16 18 19 20 21 24 26 25 23 23 24 24 24
7 7 10 14 15 17 15 16 14 13 12 11 11 10 9 9 10 10 10 10 9 10 13 13 16 15 14 13 14 15 17 20 19 21 22 25 26 24 23 24 25 25 25
9 9 11 14 17 17 16 17 15 14 14 13 12 11 9 8 9 10 10 10 9 10 13 14 16 17 18 16 17 18 18 20 22 21 20 25 24 24 25 25 25 26 26
11 11 12 15 17 16 17 16 16 14 14 14 12 11 11 10 10 10 11 10 10 11 11 12 16 19 18 18 19 21 23 24 22 21 21 24 25 25 26 26 25 25 26
12 13 13 16 17 17 17 15 15 14 14 14 13 12 13 11 12 11 12 12 12 9 8 9 14 21 21 22 21 24 25 22 22 20 22 23 25 27 27 26 26 26 26
15 16 16 17 17 17 16 14 14 15 15 15 14 13 13 12 13 13 14 15 17 13 13 12 15 24 23 18 22 26 24 23 23 22 23 21 25 31 30 30 32 32 27
16 19 17 18 19 17 16 15 14 16 17 16 15 14 13 14 15 16 17 17 16 11 12 11 18 24 26 23 23 27 23 21 22 23 24 21 20 23 25 27 28 22 19
18 18 18 16 19 18 17 15 14 13 17 19 16 15 14 14 14 17 17 19 18 16 14 13 16 25 25 27 26 25 22 21 22 25 25 23 23 21 20 23 30 31 29
21 19 16 15 16 16 15 14 15 15 15 16 16 14 13 16 17 17 16 18 20 19 21 16 24 24 36 32 29 25 24 24 25 26 26 27 28 26 26 25 26 27 28
25 23 21 16 13 11 16 15 13 15 16 16 16 14 16 16 16 17 16 17 18 18 20 25 32 32 27 35 33 28 24 24 26 30 32 30 31 29 24 21 22 23 21
24 25 24 24 19 22 23 19 13 14 12 12 12 15 15 15 11 9 12 17 20 21 24 35 26 32 38 34 33 27 26 28 33 35 33 34 30 27 23 21 22 19 16
26 24 26 23 23 27 25 17 15 17 17 17 17 14 12 12 9 7 7 13 22 27 38 35 39 36 41 32 27 27 34 40 38 33 28 28 25 24 20 18 17 17 15
21 27 24 25 21 22 19 17 14 19 19 17 15 11 11 12 10 6 11 27 32 42 39 37 38 40 34 33 32 38 41 34 33 30 24 21 18 17 14 13 12 11 10
22 22 25 25 20 20 19 18 19 20 20 16 17 15 16 14 10 12 16 25 33 33 34 37 38 39 36 40 41 39 38 30 28 22 17 14 12 12 9 10 13 12 12
19 21 21 25 22 23 25 22 19 20 19 17 18 17 19 18 14 11 18 34 38 29 31 34 39 39 40 40 39 33 28 24 21 18 16 17 20 20 19 17 16 16 15
11 16 17 21 23 25 25 25 26 22 18 19 20 20 20 20 19 18 27 34 37 34 37 42 44 43 39 35 31 29 26 24 22 18 14 16 21 23 22 19 18 19 18
6 8 14 15 26 24 25 22 24 20 20 23 22 22 22 21 22 23 24 26 31 31 33 39 38 38 39 36 36 34 26 21 19 19 20 20 18 17 19 21 20 19 19
6 7 11 16 20 21 27 23 25 23 22 24 24 24 25 24 24 25 27 29 35 33 35 38 38 39 37 40 39 35 30 23 21 19 19 18 17 16 15 15 16 19 18
7 2 7 13 17 17 31 28 28 26 24 23 25 28 27 26 28 27 29 31 34 39 45 45 44 42 41 38 37 33 29 24 21 19 17 16 16 18 16 15 13 12 14
19 15 7 7 17 20 21 32 29 27 27 25 24 22 26 29 30 31 33 37 44 50 49 46 43 43 40 38 38 37 22 22 19 16 16 15 15 15 15 14 14 13 11
26 20 17 11 13 18 19 26 32 29 26 27 27 26 27 29 31 32 34 38 42 46 49 48 45 42 44 37 36 24 18 10 24 16 15 15 15 15 14 13 11 10 9
26 23 20 16 12 16 19 22 36 36 34 33 32 31 29 28 33 34 35 38 40 41 41 41 40 39 35 35 34 22 18 20 19 16 19 17 16 15 14 13 11 10 9
28 24 19 18 15 14 22 26 34 37 38 36 33 34 31 31 32 35 36 38 40 39 38 36 35 32 29 27 24 27 19 15 25 26 27 25 20 17 16 15 14 13 11
32 28 21 17 16 12 16 24 32 45 43 40 38 39 37 37 37 37 37 38 39 39 39 39 37 37 37 37 36 34 29 22 27 23 24 28 23 20 17 16 15 13 12
Wind_Direction
190 189 197 201 201 199 190 186 185 184 185 197 207 209 214 215 218 213 201 194 188 187 185 186 181 177 175 176 180 187 187 182 184 185 176 163 154 145 142 141 139 132 129
204 195 208 202 200 197 190 186 181 175 180 210 216 216 217 218 217 209 207 205 197 198 192 193 189 181 179 181 181 175 171 173 172 166 160 152 145 143 141 141 138 132 131
176 192 206 204 201 196 193 190 183 178 199 211 215 217 221 218 221 218 216 212 209 207 197 193 192 185 181 179 172 166 160 152 152 152 149 145 145 144 143 143 137 134 131
196 188 202 203 202 195 194 188 188 194 205 213 217 225 224 221 220 220 221 215 216 209 200 197 190 182 182 179 173 163 155 151 146 147 148 149 149 147 143 143 138 135 130
209 193 202 202 197 196 195 191 197 203 212 215 224 225 227 218 212 209 213 214 213 211 208 203 196 192 181 188 173 163 153 147 146 143 155 156 153 151 148 146 142 139 135
202 196 205 200 197 199 192 196 205 211 216 221 227 226 226 217 214 221 220 219 207 198 206 210 201 189 184 191 173 163 151 145 148 159 163 163 160 155 153 151 148 143 140
194 200 204 198 202 198 200 203 206 215 221 227 230 226 223 221 227 229 226 217 197 197 183 210 215 198 185 187 170 162 157 154 154 158 162 163 164 157 152 148 146 141 135
192 202 208 204 202 203 210 212 211 214 220 231 228 226 226 223 226 229 231 224 222 235 234 230 217 205 178 173 169 167 161 160 162 166 151 157 161 153 150 150 139 129 126
203 208 210 204 208 212 220 221 224 213 215 226 230 229 228 226 228 230 231 227 230 224 210 196 199 208 187 170 177 169 168 170 169 162 152 152 139 130 122 116 117 133 126
203 207 219 210 212 216 225 226 225 214 211 221 231 235 239 235 233 232 234 236 232 229 221 216 220 200 198 176 176 168 172 178 165 157 151 148 142 137 133 126 127 133 132
202 212 212 222 218 215 222 223 226 216 216 223 230 233 231 230 232 236 232 233 229 223 228 208 173 163 169 174 166 167 167 167 162 152 147 146 140 136 133 134 132 138 141
208 208 199 202 213 186 216 221 216 207 213 221 224 219 226 236 231 237 233 235 231 223 226 210 194 192 182 176 170 167 160 159 152 137 138 142 139 141 146 150 145 142 144
220 218 196 199 184 199 212 219 205 189 187 179 196 209 216 234 240 219 215 230 209 213 207 185 187 171 170 170 168 165 160 158 152 135 131 129 140 152 155 152 154 155 156
215 222 217 194 195 207 215 210 190 180 194 188 195 211 215 221 210 218 235 206 190 171 165 162 173 179 181 163 166 163 159 149 149 144 141 145 144 149 153 157 160 166 172
236 225 213 187 205 209 206 192 191 191 200 205 213 210 188 201 213 206 174 164 160 164 168 165 155 160 164 170 169 158 157 162 156 154 150 151 156 158 162 172 185 191 199
242 225 214 199 200 203 198 197 189 197 210 197 197 181 181 189 196 160 171 178 179 162 154 149 152 153 151 164 152 154 149 151 154 156 151 141 158 167 176 150 141 139 141
236 239 227 207 195 214 201 187 192 204 203 194 192 181 175 176 171 167 161 168 155 157 156 161 156 154 144 141 138 138 134 135 132 137 136 132 129 131 133 127 127 125 125
202 230 233 218 200 218 217 209 207 213 199 190 184 178 180 174 172 171 157 168 174 168 164 159 145 138 135 136 132 127 128 131 135 138 137 141 141 135 125 121 120 118 118
78 175 203 238 208 216 219 211 208 214 201 191 191 191 183 186 192 186 188 173 166 162 168 165 157 156 151 147 143 141 143 146 149 150 152 149 147 144 142 137 128 123 120
52 134 196 206 223 216 219 205 209 204 198 196 198 203 203 199 194 192 193 188 182 182 179 173 171 165 162 154 145 140 148 154 150 153 154 150 153 153 149 145 142 134 127
342 52 163 192 214 217 217 207 209 205 199 199 204 207 205 194 194 194 195 193 188 186 179 177 173 170 167 168 160 146 143 149 155 155 158 158 152 160 159 156 157 150 145
345 334 299 218 214 220 197 222 215 210 197 191 204 198 197 190 192 191 195 192 186 179 177 176 178 169 167 164 158 150 130 140 152 155 161 166 166 169 168 166 169 169 158
357 337 325 294 245 219 199 204 215 207 199 196 201 194 195 189 187 188 189 186 182 181 178 178 176 173 162 165 164 161 141 161 159 166 176 176 178 178 176 177 181 172 168
358 346 327 318 284 242 208 205 214 202 207 208 200 193 191 189 187 185 186 186 184 182 179 178 177 175 169 175 180 182 177 187 169 167 178 180 187 183 184 182 187 187 184
7 359 341 327 302 265 231 210 213 214 214 211 200 194 191 186 188 186 185 186 187 186 184 181 177 176 180 180 195 199 193 177 182 174 177 180 184 186 190 189 192 196 193
13 9 0 331 320 294 248 224 204 213 213 209 202 198 192 187 184 184 186 187 188 187 185 186 186 191 195 196 196 197 200 189 188 184 180 182 185 186 194 192 196 200 203
Height
1457 1460 1462 1463 1466 1468 1471 1473 1476 1478 1480 1483 1485 1487 1489 1490 1492 1494 1496 1498 1500 1502 1503 1506 1507 1510 1512 1513 1515 1516 1518 1520 1521 1522 1525 1526 1529 1531 1533 1535 1536 1538 1540
1456 1459 1461 1462 1465 1467 1470 1472 1475 1477 1480 1482 1484 1486 1488 1489 1491 1494 1496 1498 1499 1502 1503 1505 1508 1510 1512 1513 1515 1517 1518 1519 1521 1523 1526 1528 1530 1532 1535 1536 1538 1540 1542
1455 1458 1460 1462 1464 1467 1470 1472 1474 1476 1479 1481 1483 1485 1486 1489 1491 1493 1495 1497 1499 1501 1502 1505 1508 1510 1512 1514 1516 1517 1518 1520 1523 1525 1527 1529 1531 1533 1536 1539 1540 1542 1543
1456 1457 1458 1461 1463 1466 1469 1471 1473 1476 1478 1480 1482 1484 1485 1488 1490 1492 1494 1496 1499 1500 1503 1505 1507 1511 1513 1515 1517 1519 1520 1522 1524 1527 1529 1531 1533 1535 1537 1540 1542 1544 1545
1455 1456 1457 1459 1462 1465 1468 1470 1472 1475 1477 1479 1481 1483 1485 1487 1489 1491 1493 1495 1498 1500 1502 1505 1507 1509 1513 1514 1518 1520 1523 1523 1525 1527 1530 1532 1534 1536 1539 1541 1544 1545 1547
1454 1455 1457 1459 1461 1464 1467 1469 1472 1474 1476 1478 1480 1482 1484 1486 1488 1489 1492 1494 1497 1498 1502 1505 1508 1510 1512 1516 1519 1521 1523 1524 1526 1527 1530 1532 1534 1536 1539 1542 1545 1547 1549
1453 1454 1456 1458 1461 1463 1465 1468 1470 1472 1474 1477 1479 1481 1482 1483 1486 1489 1491 1493 1496 1498 1501 1504 1508 1511 1513 1516 1521 1522 1523 1524 1526 1528 1530 1531 1533 1536 1538 1542 1546 1549 1552
1452 1452 1454 1456 1458 1461 1463 1466 1468 1470 1472 1475 1477 1479 1481 1482 1484 1488 1489 1492 1495 1496 1499 1502 1506 1509 1512 1514 1521 1523 1524 1526 1527 1529 1531 1532 1521 1527 1535 1540 1545 1548 1553
1451 1450 1451 1453 1456 1458 1460 1463 1465 1467 1470 1472 1475 1477 1478 1480 1482 1486 1487 1489 1491 1493 1496 1499 1503 1506 1509 1515 1521 1524 1525 1527 1528 1530 1532 1533 1534 1535 1535 1538 1534 1545 1550
1449 1450 1449 1451 1453 1455 1457 1460 1462 1465 1467 1470 1472 1474 1476 1477 1480 1483 1485 1487 1489 1492 1493 1495 1499 1501 1506 1516 1522 1524 1526 1529 1530 1531 1534 1536 1537 1538 1540 1545 1548 1553 1557
1447 1448 1449 1449 1451 1453 1455 1457 1459 1461 1465 1467 1470 1473 1472 1473 1477 1479 1482 1484 1486 1488 1490 1494 1497 1502 1504 1514 1518 1523 1526 1529 1531 1533 1535 1538 1540 1541 1545 1548 1552 1556 1559
1443 1445 1448 1450 1451 1453 1453 1455 1455 1459 1461 1463 1466 1469 1468 1470 1473 1476 1479 1480 1484 1486 1488 1492 1495 1501 1508 1514 1518 1524 1525 1528 1531 1534 1536 1540 1542 1543 1546 1550 1554 1557 1561
1442 1443 1445 1447 1452 1451 1452 1453 1454 1457 1459 1461 1463 1466 1465 1468 1471 1473 1475 1475 1478 1482 1486 1487 1491 1499 1506 1512 1517 1522 1525 1528 1531 1535 1538 1540 1543 1544 1549 1554 1557 1560 1562
1439 1440 1442 1446 1448 1448 1449 1451 1452 1454 1457 1460 1461 1464 1465 1467 1470 1472 1472 1472 1474 1477 1481 1483 1491 1498 1506 1513 1518 1523 1524 1527 1530 1536 1539 1542 1545 1548 1553 1556 1559 1560 1563
1435 1436 1438 1444 1446 1447 1447 1449 1451 1453 1455 1457 1459 1461 1465 1466 1469 1471 1472 1474 1472 1475 1482 1486 1493 1501 1506 1513 1519 1521 1523 1527 1532 1537 1541 1544 1547 1550 1553 1556 1559 1560 1562
1432 1432 1435 1438 1443 1445 1446 1447 1449 1451 1453 1455 1456 1460 1464 1466 1468 1470 1471 1474 1479 1480 1485 1491 1498 1502 1508 1513 1517 1519 1523 1529 1534 1538 1542 1543 1547 1550 1552 1556 1559 1560 1562
1432 1431 1432 1436 1439 1442 1443 1445 1446 1448 1450 1453 1455 1458 1463 1465 1468 1471 1472 1474 1478 1482 1487 1494 1499 1504 1508 1512 1518 1522 1526 1531 1534 1539 1544 1545 1548 1552 1556 1559 1560 1561 1564
1423 1427 1431 1435 1437 1438 1440 1443 1445 1446 1449 1451 1454 1457 1462 1464 1469 1472 1475 1475 1480 1483 1486 1492 1498 1502 1508 1512 1517 1522 1526 1532 1537 1542 1545 1547 1550 1552 1556 1560 1562 1563 1565
1421 1424 1427 1433 1435 1436 1437 1440 1444 1447 1448 1449 1452 1456 1460 1463 1467 1471 1475 1479 1483 1486 1489 1492 1498 1503 1508 1513 1517 1522 1527 1532 1538 1542 1545 1549 1552 1555 1556 1558 1562 1564 1565
1417 1419 1422 1426 1433 1434 1436 1439 1442 1444 1446 1448 1450 1453 1457 1461 1465 1468 1473 1477 1480 1484 1489 1492 1496 1503 1507 1512 1517 1520 1527 1535 1541 1546 1549 1553 1555 1556 1558 1560 1562 1563 1565
1415 1414 1418 1422 1427 1426 1430 1435 1438 1440 1443 1443 1447 1450 1453 1457 1461 1466 1470 1474 1478 1481 1484 1489 1496 1499 1507 1513 1516 1526 1533 1538 1545 1549 1552 1554 1556 1557 1559 1561 1564 1564 1564
1415 1415 1415 1417 1422 1424 1425 1430 1435 1439 1440 1442 1442 1446 1449 1453 1457 1462 1467 1471 1473 1476 1481 1487 1494 1499 1507 1513 1517 1524 1534 1544 1547 1550 1552 1554 1556 1557 1560 1561 1563 1564 1566
1420 1418 1417 1416 1418 1421 1422 1425 1430 1435 1439 1440 1441 1443 1445 1450 1455 1460 1465 1469 1472 1475 1479 1485 1492 1498 1503 1511 1517 1521 1530 1537 1544 1549 1551 1553 1556 1558 1560 1561 1562 1565 1567
1425 1421 1417 1415 1414 1417 1418 1421 1423 1427 1433 1435 1437 1440 1443 1447 1452 1457 1462 1467 1470 1476 1481 1486 1491 1498 1503 1508 1516 1519 1522 1526 1533 1544 1549 1551 1554 1557 1558 1560 1562 1565 1566
1429 1423 1419 1417 1415 1413 1415 1418 1422 1421 1428 1432 1436 1438 1442 1445 1449 1454 1460 1464 1469 1474 1479 1485 1490 1496 1502 1509 1514 1517 1520 1524 1529 1532 1540 1547 1551 1554 1555 1557 1560 1562 1564
1430 1423 1419 1416 1413 1412 1411 1411 1416 1417 1420 1426 1431 1434 1438 1442 1447 1452 1458 1462 1467 1472 1477 1481 1486 1491 1496 1503 1507 1513 1518 1520 1523 1528 1533 1542 1546 1549 1553 1555 1559 1561 1562